GW5431 Weather Reports


time (UTC)temp
C
wind
direction
speed
KPH
gust
KPH
rain 1hr
cm
rain 24hr
cm
rain mn
cm
humidity
%
barometer
mb
20260906082306 25 127 0.0 0.0 0.00 0.00 0.00 87 1012.7
20260906081800 25 113 1.6 1.6 0.00 0.00 0.00 87 1012.6
20260906081255 25 127 0.0 0.0 0.00 0.00 0.00 87 1012.9
20260906080751 25 128 0.0 1.6 0.00 0.00 0.00 87 1012.8
20260906080248 25 122 0.0 0.0 0.00 0.00 0.00 87 1012.8
20260906075747 25 135 0.0 1.6 0.00 0.00 0.00 87 1013.0
20260906075247 25 147 0.0 1.6 0.00 0.00 0.00 86 1013.0
20260906074742 25 75 3.2 4.8 0.00 0.00 0.00 85 1012.9
20260906074242 25 117 0.0 1.6 0.00 0.00 0.00 84 1012.8
20260906073741 25 113 3.2 4.8 0.00 0.00 0.00 83 1012.8
20260906073236 25 109 1.6 1.6 0.00 0.00 0.00 83 1012.5
20260906072732 25 133 0.0 0.0 0.00 0.00 0.00 82 1012.4
20260906072228 25 130 0.0 0.0 0.00 0.00 0.00 81 1012.4
20260906071724 25 101 3.2 3.2 0.00 0.00 0.00 79 1012.4
20260906071223 25 140 0.0 0.0 0.00 0.00 0.00 78 1012.5
20260906070720 26 117 1.6 1.6 0.00 0.00 0.00 78 1012.5
20260906070216 26 126 1.6 1.6 0.00 0.00 0.00 77 1012.5
20260906065715 26 114 1.6 3.2 0.00 0.00 0.00 77 1012.4
20260906065210 26 125 0.0 0.0 0.00 0.00 0.00 76 1012.2
20260906064706 26 135 1.6 1.6 0.00 0.00 0.00 75 1012.3
20260906064201 26 143 0.0 0.0 0.00 0.00 0.00 75 1012.0
20260906063656 26 155 0.0 1.6 0.00 0.00 0.00 76 1012.0
20260906063152 26 139 0.0 0.0 0.00 0.00 0.00 77 1012.1
20260906062648 26 137 0.0 0.0 0.00 0.00 0.00 77 1012.3
20260906062146 26 138 0.0 0.0 0.00 0.00 0.00 78 1012.2
20260906061642 26 139 0.0 0.0 0.00 0.00 0.00 76 1012.0
20260906061142 26 148 1.6 1.6 0.00 0.00 0.00 77 1012.2
20260906060639 27 145 1.6 1.6 0.00 0.00 0.00 75 1012.3
20260906060136 27 132 0.0 0.0 0.00 0.00 0.00 74 1012.6
20260906055631 27 128 0.0 0.0 0.00 0.00 0.00 73 1012.6
20260906055126 27 114 1.6 1.6 0.00 0.00 0.00 73 1012.6
20260906054621 27 122 0.0 0.0 0.00 0.00 0.00 72 1012.3
20260906054117 27 148 0.0 1.6 0.00 0.00 0.00 72 1012.2
20260906053613 27 143 1.6 1.6 0.00 0.00 0.00 71 1012.5
20260906053108 27 127 1.6 3.2 0.00 0.00 0.00 73 1012.4
20260906052604 27 139 1.6 1.6 0.00 0.00 0.00 78 1012.5
20260906052101 27 94 3.2 3.2 0.00 0.00 0.00 79 1012.2
20260906051556 27 135 0.0 0.0 0.00 0.00 0.00 80 1012.3
20260906051051 27 150 6.4 9.7 0.00 0.00 0.00 81 1012.2
20260906050546 26 142 6.4 11.3 0.00 0.00 0.00 82 1012.0
20260906050041 26 137 0.0 0.0 0.00 0.00 0.00 82 1012.1
20260906045539 26 134 1.6 1.6 0.00 0.00 0.00 82 1012.4
20260906045035 26 140 0.0 0.0 0.00 0.00 0.00 83 1012.5
20260906044531 26 139 0.0 0.0 0.00 0.00 0.00 84 1012.3
20260906044026 25 132 0.0 1.6 0.00 0.00 0.00 86 1012.5
20260906043522 25 130 0.0 0.0 0.00 0.00 0.00 87 1012.1
20260906043018 25 130 0.0 0.0 0.00 0.00 0.00 87 1012.3
20260906042517 25 129 0.0 0.0 0.00 0.00 0.00 88 1012.3
20260906042017 25 130 0.0 0.0 0.00 0.00 0.00 88 1012.4
20260906041513 25 130 0.0 0.0 0.00 0.00 0.00 87 1012.4
20260906041013 25 135 0.0 0.0 0.00 0.00 0.00 87 1012.4
20260906040508 25 136 0.0 0.0 0.00 0.00 0.00 88 1012.6
20260906040003 25 137 0.0 0.0 0.00 0.00 0.00 87 1012.3
20260906035458 25 130 0.0 0.0 0.00 0.00 0.00 87 1012.4
20260906034954 26 130 0.0 0.0 0.00 0.00 0.00 87 1012.3
20260906034454 26 131 0.0 0.0 0.00 0.00 0.00 86 1012.3
20260906033949 26 137 0.0 0.0 0.00 0.00 0.00 86 1012.3
20260906033444 26 137 0.0 0.0 0.00 0.00 0.00 85 1012.3
20260906032940 26 137 0.0 0.0 0.00 0.00 0.00 85 1012.2
20260906032437 26 137 0.0 0.0 0.00 0.00 0.00 85 1012.2
20260906031936 26 137 0.0 0.0 0.00 0.00 0.00 85 1012.3
20260906031432 26 134 0.0 0.0 0.00 0.00 0.00 84 1012.1
20260906030927 26 134 0.0 0.0 0.00 0.00 0.00 84 1012.0
20260906030422 26 136 0.0 0.0 0.00 0.00 0.00 84 1012.1
20260906025922 26 136 0.0 0.0 0.00 0.00 0.00 83 1012.2
20260906025416 26 135 0.0 0.0 0.00 0.00 0.00 82 1012.0
20260906024915 26 135 0.0 0.0 0.00 0.00 0.00 81 1012.0
20260906024415 27 135 0.0 0.0 0.00 0.00 0.00 81 1012.0
20260906023910 27 135 0.0 0.0 0.00 0.00 0.00 80 1012.1
20260906023406 27 135 0.0 0.0 0.00 0.00 0.00 81 1011.8
20260906022901 27 131 0.0 0.0 0.00 0.00 0.00 80 1012.0
20260906022401 27 130 0.0 0.0 0.00 0.00 0.00 80 1011.8
20260906021857 27 129 0.0 0.0 0.00 0.00 0.00 81 1011.6
20260906021355 27 128 0.0 0.0 0.00 0.00 0.00 81 1011.9
20260906020851 27 126 0.0 0.0 0.00 0.00 0.00 80 1011.5
20260906020350 27 131 0.0 0.0 0.00 0.00 0.00 80 1011.4
20260906015845 27 131 0.0 0.0 0.00 0.00 0.00 79 1011.2
20260906015345 27 130 0.0 0.0 0.00 0.00 0.00 79 1011.5
20260906014845 27 130 0.0 0.0 0.00 0.00 0.00 79 1011.2
20260906014344 28 133 0.0 0.0 0.00 0.00 0.00 79 1011.1
20260906013841 28 130 0.0 0.0 0.00 0.00 0.00 77 1011.0
20260906013336 28 130 0.0 0.0 0.00 0.00 0.00 76 1010.8
20260906012831 28 133 0.0 0.0 0.00 0.00 0.00 77 1010.9
20260906012327 28 131 0.0 0.0 0.00 0.00 0.00 76 1011.0
20260906011826 28 132 0.0 0.0 0.00 0.00 0.00 77 1010.9
20260906011321 28 131 0.0 0.0 0.00 0.00 0.00 78 1010.8
20260906010817 28 137 0.0 0.0 0.00 0.00 0.00 76 1010.7
20260906010313 28 131 0.0 0.0 0.00 0.00 0.00 76 1010.9
20260906005808 28 134 0.0 0.0 0.00 0.00 0.00 77 1010.8
20260906005307 28 130 0.0 0.0 0.00 0.00 0.00 77 1010.8
20260906004806 28 129 0.0 0.0 0.00 0.00 0.00 77 1010.7
20260906004306 29 137 0.0 0.0 0.00 0.00 0.00 77 1010.6
20260906003802 29 137 0.0 0.0 0.00 0.00 0.00 78 1010.7
20260906003257 29 137 0.0 0.0 0.00 0.00 0.00 77 1010.5
20260906002753 29 136 0.0 0.0 0.00 0.00 0.00 78 1010.4
20260906002252 30 136 0.0 0.0 0.00 0.00 0.00 77 1010.6
20260906001748 30 138 0.0 0.0 0.00 0.00 0.00 77 1010.6
20260906001248 30 132 0.0 0.0 0.00 0.00 0.00 74 1010.7
20260906000743 30 135 0.0 0.0 0.00 0.00 0.00 73 1010.7
20260906000238 31 135 0.0 0.0 0.00 0.00 0.00 71 1010.8
20260905235733 31 136 0.0 0.0 0.00 0.00 0.00 70 1010.7
20260905235232 31 135 0.0 0.0 0.00 0.00 0.00 68 1010.8
20260905234728 31 135 0.0 0.0 0.00 0.00 0.00 67 1010.6
20260905234223 32 131 0.0 0.0 0.00 0.00 0.00 66 1010.6
20260905233719 32 135 0.0 0.0 0.00 0.00 0.00 64 1010.7
20260905233218 33 138 0.0 0.0 0.00 0.00 0.00 63 1010.7
20260905232713 33 137 0.0 0.0 0.00 0.00 0.00 63 1010.7
20260905232208 33 137 0.0 0.0 0.00 0.00 0.00 62 1010.6
20260905231704 33 139 0.0 0.0 0.00 0.00 0.00 61 1010.6
20260905231200 33 140 0.0 0.0 0.00 0.00 0.00 62 1010.5
20260905230655 33 140 0.0 0.0 0.00 0.00 0.00 63 1010.5
20260905230153 33 141 0.0 0.0 0.00 0.00 0.00 61 1010.5
20260905225653 34 142 0.0 0.0 0.00 0.00 0.00 60 1010.6
20260905225148 34 137 0.0 0.0 0.00 0.00 0.00 60 1010.5
20260905224647 35 135 0.0 0.0 0.00 0.00 0.00 58 1010.5
20260905224141 35 138 0.0 0.0 0.00 0.00 0.00 58 1010.6
20260905223638 35 139 0.0 0.0 0.00 0.00 0.00 57 1010.5
20260905223135 35 141 0.0 0.0 0.00 0.00 0.00 54 1010.5
20260905222630 35 130 0.0 0.0 0.00 0.00 0.00 49 1010.6
20260905222125 35 106 1.6 1.6 0.00 0.00 0.00 49 1010.6
20260905221621 35 86 1.6 1.6 0.00 0.00 0.00 52 1010.5
20260905221118 35 140 0.0 1.6 0.00 0.00 0.00 49 1010.5
20260905220613 36 148 1.6 1.6 0.00 0.00 0.00 50 1010.6
20260905220109 36 131 0.0 1.6 0.00 0.00 0.00 48 1010.8
20260905215608 36 141 0.0 0.0 0.00 0.00 0.00 47 1010.6
20260905215104 37 136 0.0 1.6 0.00 0.00 0.00 45 1010.7
20260905214600 37 150 1.6 1.6 0.00 0.00 0.00 45 1010.6
20260905214055 38 139 0.0 0.0 0.00 0.00 0.00 43 1010.6
20260905213550 40 127 0.0 0.0 0.00 0.00 0.00 42 1010.7
20260905213045 40 126 1.6 1.6 0.00 0.00 0.00 39 1011.0
20260905212545 40 131 0.0 0.0 0.00 0.00 0.00 39 1010.6
20260905212044 41 119 3.2 3.2 0.00 0.00 0.00 38 1010.9
20260905211540 41 145 0.0 0.0 0.00 0.00 0.00 41 1010.8
20260905211035 40 133 0.0 1.6 0.00 0.00 0.00 39 1010.9
20260905210532 40 141 0.0 1.6 0.00 0.00 0.00 40 1010.9
20260905210031 40 122 1.6 1.6 0.00 0.00 0.00 42 1010.9
20260905205531 41 135 1.6 3.2 0.00 0.00 0.00 40 1011.0
20260905205030 41 169 1.6 1.6 0.00 0.00 0.00 38 1011.1
20260905204525 40 149 0.0 0.0 0.00 0.00 0.00 41 1011.0
20260905204020 40 163 0.0 1.6 0.00 0.00 0.00 41 1011.2
20260905203515 40 154 1.6 1.6 0.00 0.00 0.00 41 1011.3
20260905203010 40 169 1.6 1.6 0.00 0.00 0.00 39 1011.4
20260905202511 39 155 1.6 1.6 0.00 0.00 0.00 41 1011.3
20260905202006 39 134 0.0 0.0 0.00 0.00 0.00 43 1011.5
20260905201501 40 41 4.8 4.8 0.00 0.00 0.00 43 1011.6
20260905201001 40 308 1.6 3.2 0.00 0.00 0.00 41 1011.6
20260905200457 40 117 1.6 1.6 0.00 0.00 0.00 41 1011.8
20260905195955 39 143 1.6 1.6 0.00 0.00 0.00 42 1011.6
20260905195450 38 5 1.6 3.2 0.00 0.00 0.00 45 1011.8
20260905194946 38 117 1.6 3.2 0.00 0.00 0.00 45 1012.1
20260905194445 38 142 0.0 0.0 0.00 0.00 0.00 46 1012.1
20260905193940 37 156 3.2 3.2 0.00 0.00 0.00 46 1012.3
20260905193440 38 136 1.6 3.2 0.00 0.00 0.00 46 1012.4
20260905192935 38 134 3.2 4.8 0.00 0.00 0.00 44 1012.4
20260905192430 38 150 1.6 1.6 0.00 0.00 0.00 47 1012.3
20260905191926 38 115 0.0 1.6 0.00 0.00 0.00 46 1012.5
20260905191420 38 137 1.6 1.6 0.00 0.00 0.00 47 1012.7
20260905190920 38 42 3.2 3.2 0.00 0.00 0.00 47 1012.6
20260905190417 38 201 3.2 3.2 0.00 0.00 0.00 47 1012.5
20260905185916 38 33 3.2 4.8 0.00 0.00 0.00 44 1012.7
20260905185412 38 126 1.6 1.6 0.00 0.00 0.00 47 1012.7
20260905184911 38 129 3.2 4.8 0.00 0.00 0.00 44 1012.9
20260905184410 40 142 4.8 4.8 0.00 0.00 0.00 44 1012.8
20260905183909 40 131 1.6 1.6 0.00 0.00 0.00 42 1012.9
20260905183404 39 173 1.6 1.6 0.00 0.00 0.00 43 1013.0
20260905182859 39 150 0.0 1.6 0.00 0.00 0.00 47 1013.1
20260905182358 38 135 1.6 1.6 0.00 0.00 0.00 44 1013.0
20260905181854 38 184 3.2 3.2 0.00 0.00 0.00 44 1013.1
20260905181354 38 198 1.6 1.6 0.00 0.00 0.00 46 1013.2
20260905180853 38 89 1.6 3.2 0.00 0.00 0.00 46 1013.4
20260905180349 38 43 4.8 6.4 0.00 0.00 0.00 44 1013.3
20260905175843 38 146 1.6 1.6 0.00 0.00 0.00 44 1013.3
20260905175343 37 143 1.6 3.2 0.00 0.00 0.00 47 1013.5
20260905174838 37 115 3.2 3.2 0.00 0.00 0.00 47 1013.4
20260905174334 37 88 4.8 4.8 0.00 0.00 0.00 46 1013.6
20260905173830 37 80 1.6 3.2 0.00 0.00 0.00 50 1013.6
20260905173326 37 142 0.0 0.0 0.00 0.00 0.00 48 1013.7
20260905172826 37 142 1.6 3.2 0.00 0.00 0.00 50 1013.5
20260905172324 37 108 1.6 3.2 0.00 0.00 0.00 49 1013.5
20260905171820 37 273 3.2 4.8 0.00 0.00 0.00 50 1013.6
20260905171317 37 157 1.6 3.2 0.00 0.00 0.00 49 1013.8
20260905170813 37 75 3.2 4.8 0.00 0.00 0.00 50 1013.8
20260905170308 37 142 1.6 1.6 0.00 0.00 0.00 49 1013.6
20260905165807 38 130 1.6 1.6 0.00 0.00 0.00 49 1014.0
20260905165306 37 137 1.6 1.6 0.00 0.00 0.00 50 1013.9
20260905164803 36 133 1.6 1.6 0.00 0.00 0.00 51 1014.0
20260905164258 37 164 1.6 3.2 0.00 0.00 0.00 50 1014.1
20260905163753 37 315 1.6 3.2 0.00 0.00 0.00 50 1014.2
20260905163250 37 124 3.2 3.2 0.00 0.00 0.00 51 1014.4
20260905162745 37 97 1.6 1.6 0.00 0.00 0.00 50 1014.3
20260905162245 37 129 3.2 3.2 0.00 0.00 0.00 50 1014.3
20260905161740 37 135 0.0 1.6 0.00 0.00 0.00 51 1014.4
20260905161238 37 164 0.0 1.6 0.00 0.00 0.00 53 1014.6
20260905160737 36 118 1.6 1.6 0.00 0.00 0.00 53 1014.4
20260905160237 36 293 1.6 1.6 0.00 0.00 0.00 53 1014.5
20260905155732 37 143 0.0 0.0 0.00 0.00 0.00 55 1014.6
20260905155230 37 147 1.6 1.6 0.00 0.00 0.00 53 1014.6
20260905154720 37 190 3.2 4.8 0.00 0.00 0.00 53 1014.6
20260905154215 37 127 1.6 1.6 0.00 0.00 0.00 53 1014.7
20260905153711 37 132 1.6 1.6 0.00 0.00 0.00 54 1014.7
20260905153207 38 105 0.0 0.0 0.00 0.00 0.00 51 1014.7
20260905152701 37 143 0.0 1.6 0.00 0.00 0.00 52 1014.6
20260905152155 37 193 3.2 4.8 0.00 0.00 0.00 53 1014.7
20260905151650 37 141 0.0 0.0 0.00 0.00 0.00 55 1014.8
20260905151146 37 142 1.6 1.6 0.00 0.00 0.00 54 1014.8
20260905150641 37 137 1.6 1.6 0.00 0.00 0.00 54 1014.8
20260905150139 36 155 1.6 1.6 0.00 0.00 0.00 56 1014.7
20260905145638 37 144 1.6 1.6 0.00 0.00 0.00 55 1014.7
20260905145137 36 138 0.0 0.0 0.00 0.00 0.00 56 1014.4
20260905144632 35 143 1.6 1.6 0.00 0.00 0.00 58 1014.6
20260905144131 33 138 0.0 0.0 0.00 0.00 0.00 64 1014.7
20260905143626 32 135 0.0 0.0 0.00 0.00 0.00 67 1014.7
20260905143125 30 134 0.0 0.0 0.00 0.00 0.00 73 1014.5
20260905142624 28 135 0.0 0.0 0.00 0.00 0.00 78 1014.8
20260905142119 28 130 0.0 0.0 0.00 0.00 0.00 79 1014.7
20260905141618 28 143 0.0 1.6 0.00 0.00 0.00 80 1014.8
20260905141115 27 136 0.0 1.6 0.00 0.00 0.00 80 1015.0
20260905140616 27 148 1.6 1.6 0.00 0.00 0.00 81 1014.9
20260905140114 27 137 0.0 0.0 0.00 0.00 0.00 81 1014.8
20260905135610 27 134 0.0 0.0 0.00 0.00 0.00 83 1015.0
20260905135105 27 145 0.0 1.6 0.00 0.00 0.00 84 1014.9
20260905134600 27 138 1.6 1.6 0.00 0.00 0.00 84 1014.9
20260905134058 27 119 1.6 1.6 0.00 0.00 0.00 84 1015.0
20260905133554 27 133 0.0 0.0 0.00 0.00 0.00 85 1015.0
20260905133049 27 138 0.0 0.0 0.00 0.00 0.00 86 1014.9
20260905132549 26 138 0.0 0.0 0.00 0.00 0.00 86 1014.9
20260905132048 26 138 0.0 0.0 0.00 0.00 0.00 88 1015.0
20260905131544 26 138 0.0 0.0 0.00 0.00 0.00 91 1015.2
20260905131039 25 139 0.0 0.0 0.00 0.00 0.00 94 1015.0
20260905130538 25 138 0.0 0.0 0.00 0.00 0.00 95 1015.0
20260905130034 25 139 0.0 0.0 0.00 0.00 0.00 96 1015.0
20260905125533 25 139 0.0 0.0 0.00 0.00 0.00 97 1014.9
20260905125029 25 139 0.0 0.0 0.00 0.00 0.00 98 1014.9
20260905124525 25 139 0.0 0.0 0.00 0.00 0.00 99 1014.9
20260905124021 25 139 0.0 0.0 0.00 0.00 0.00 99 1014.8
20260905123516 23 139 0.0 0.0 0.00 0.00 0.00 99 1015.0
20260905123013 23 140 0.0 0.0 0.00 0.00 0.00 99 1014.8
20260905122507 22 140 0.0 0.0 0.00 0.00 0.00 99 1014.9
20260905122003 22 140 0.0 0.0 0.00 0.00 0.00 99 1014.8
20260905121457 22 142 0.0 0.0 0.00 0.00 0.00 98 1014.7
20260905120956 22 133 0.0 0.0 0.00 0.00 0.00 98 1014.6
20260905120451 22 137 0.0 0.0 0.00 0.00 0.00 98 1014.7
20260905115946 22 137 0.0 0.0 0.00 0.00 0.00 98 1014.7
20260905115445 22 137 0.0 0.0 0.00 0.00 0.00 98 1014.6
20260905114941 22 138 0.0 0.0 0.00 0.00 0.00 98 1014.6
20260905114440 22 138 0.0 0.0 0.00 0.00 0.00 98 1014.4
20260905113939 22 138 0.0 0.0 0.00 0.00 0.00 98 1014.3
20260905113434 22 131 0.0 0.0 0.00 0.00 0.00 98 1014.1
20260905112930 21 140 0.0 0.0 0.00 0.00 0.00 98 1014.3
20260905112425 22 140 0.0 0.0 0.00 0.00 0.00 98 1014.3
20260905111920 22 140 0.0 0.0 0.00 0.00 0.00 98 1014.3
20260905111419 22 140 0.0 0.0 0.00 0.00 0.00 98 1014.2
20260905110914 22 140 0.0 0.0 0.00 0.00 0.00 98 1014.0
20260905110408 22 132 0.0 0.0 0.00 0.00 0.00 98 1014.0
20260905105903 22 137 0.0 0.0 0.00 0.00 0.00 98 1013.9
20260905105403 22 133 0.0 0.0 0.00 0.00 0.00 98 1014.0
20260905104901 21 136 0.0 0.0 0.00 0.00 0.00 98 1014.0
20260905104358 21 136 0.0 0.0 0.00 0.00 0.00 98 1013.9
20260905103858 21 134 0.0 0.0 0.00 0.00 0.00 98 1013.8
20260905103354 22 134 0.0 0.0 0.00 0.00 0.00 98 1013.7
20260905102849 22 134 0.0 0.0 0.00 0.00 0.00 98 1013.8
20260905102346 22 136 0.0 0.0 0.00 0.00 0.00 98 1013.7
20260905101846 22 135 0.0 0.0 0.00 0.00 0.00 97 1013.5
20260905101345 22 135 0.0 0.0 0.00 0.00 0.00 97 1013.6
20260905100845 22 138 0.0 0.0 0.00 0.00 0.00 97 1013.7
20260905100341 22 137 0.0 0.0 0.00 0.00 0.00 97 1013.6
20260905095840 22 137 0.0 0.0 0.00 0.00 0.00 97 1013.6
20260905095340 22 137 0.0 0.0 0.00 0.00 0.00 97 1013.7
20260905094835 22 137 0.0 0.0 0.00 0.00 0.00 97 1013.8
20260905094331 22 137 0.0 0.0 0.00 0.00 0.00 97 1013.7
20260905093829 22 136 0.0 0.0 0.00 0.00 0.00 97 1013.5
20260905093325 22 136 0.0 0.0 0.00 0.00 0.00 97 1013.7
20260905092821 22 136 0.0 0.0 0.00 0.00 0.00 97 1013.7
20260905092321 22 136 0.0 0.0 0.00 0.00 0.00 97 1013.8
20260905091816 22 136 0.0 0.0 0.00 0.00 0.00 97 1013.6
20260905091316 22 136 0.0 0.0 0.00 0.00 0.00 97 1013.7
20260905090814 22 136 0.0 0.0 0.00 0.00 0.00 96 1013.4
20260905090311 22 136 0.0 0.0 0.00 0.00 0.00 96 1013.4
20260905085810 22 136 0.0 0.0 0.00 0.00 0.00 96 1013.3
20260905085310 22 136 0.0 0.0 0.00 0.00 0.00 96 1013.3
20260905084806 22 136 0.0 0.0 0.00 0.00 0.00 96 1013.4
20260905084305 22 134 0.0 0.0 0.00 0.00 0.00 96 1013.4
20260905083800 22 134 0.0 0.0 0.00 0.00 0.00 96 1013.4
20260905083256 22 137 0.0 0.0 0.00 0.00 0.00 96 1013.2
20260905082751 22 137 0.0 0.0 0.00 0.00 0.00 95 1013.3